JST7992 YMML-YPAD

Flight info

Callsign JST7992
Flight time 0h 56m
Altitude 34000
Route ML H345 AD
Aircraft A320/M-SDE3FGHIRWY/LB1

Departure

Time 2026-05-06 18:32
Airport Melbourne Airport (YMML)

Arrival

Time 2026-05-06 19:28
Airport Adelaide International Airport (YPAD)
Time Latitude Longitude Altitude Speed Heading
2026-05-06 18:07 -37.67349 144.84629 384 ft 0 kts 351°
2026-05-06 18:24 -37.67354 144.84630 383 ft 3 kts 352°
2026-05-06 18:25 -37.67381 144.84635 383 ft 4 kts 351°
2026-05-06 18:25 -37.67407 144.84640 382 ft 4 kts 347°
2026-05-06 18:25 -37.67432 144.84651 381 ft 4 kts 325°
2026-05-06 18:25 -37.67444 144.84669 381 ft 2 kts 261°
2026-05-06 18:26 -37.67446 144.84643 381 ft 3 kts 262°
2026-05-06 18:26 -37.67447 144.84637 381 ft 1 kts 262°
2026-05-06 18:28 -37.67447 144.84631 381 ft 3 kts 261°
2026-05-06 18:28 -37.67464 144.84567 379 ft 12 kts 229°
2026-05-06 18:28 -37.67559 144.84554 376 ft 17 kts 168°
2026-05-06 18:28 -37.67682 144.84577 372 ft 17 kts 171°
2026-05-06 18:29 -37.67798 144.84586 368 ft 16 kts 199°
2026-05-06 18:29 -37.67834 144.84446 364 ft 19 kts 258°
2026-05-06 18:29 -37.67951 144.84413 361 ft 22 kts 169°
2026-05-06 18:29 -37.68116 144.84445 357 ft 24 kts 170°
2026-05-06 18:30 -37.68289 144.84476 352 ft 27 kts 178°
2026-05-06 18:30 -37.68463 144.84375 351 ft 24 kts 215°
2026-05-06 18:30 -37.68559 144.84222 341 ft 20 kts 260°
2026-05-06 18:30 -37.68557 144.84095 351 ft 8 kts 314°
2026-05-06 18:31 -37.68480 144.84079 350 ft 24 kts 353°
2026-05-06 18:31 -37.68074 144.84002 352 ft 91 kts 351°
2026-05-06 18:31 -37.67286 144.83850 376 ft 138 kts 351°
2026-05-06 18:31 -37.66260 144.83704 783 ft 147 kts 345°
2026-05-06 18:32 -37.65243 144.83555 1369 ft 151 kts 343°
2026-05-06 18:32 -37.64190 144.83356 1918 ft 155 kts 340°
2026-05-06 18:32 -37.63089 144.83127 2288 ft 170 kts 340°
2026-05-06 18:32 -37.61847 144.82861 2564 ft 192 kts 341°
2026-05-06 18:33 -37.60448 144.82571 2854 ft 215 kts 342°
2026-05-06 18:33 -37.58893 144.82258 3121 ft 238 kts 343°
2026-05-06 18:33 -37.57226 144.81735 3509 ft 253 kts 324°
2026-05-06 18:33 -37.55955 144.80264 4108 ft 248 kts 291°
2026-05-06 18:34 -37.55399 144.78253 4960 ft 244 kts 276°
2026-05-06 18:34 -37.54949 144.76163 5862 ft 250 kts 278°
2026-05-06 18:34 -37.54460 144.74042 6741 ft 254 kts 278°
2026-05-06 18:34 -37.53956 144.71886 7596 ft 258 kts 278°
2026-05-06 18:35 -37.53443 144.69699 8426 ft 262 kts 278°
2026-05-06 18:35 -37.53100 144.68235 8992 ft 264 kts 279°
2026-05-06 18:35 -37.52578 144.66000 9849 ft 268 kts 279°
2026-05-06 18:35 -37.52048 144.63717 10506 ft 279 kts 279°
2026-05-06 18:36 -37.51494 144.61273 10737 ft 302 kts 279°
2026-05-06 18:36 -37.50900 144.58635 10905 ft 325 kts 280°
2026-05-06 18:36 -37.50256 144.55811 11127 ft 343 kts 281°
2026-05-06 18:36 -37.49577 144.52896 11738 ft 350 kts 281°
2026-05-06 18:37 -37.48881 144.49942 12416 ft 354 kts 281°
2026-05-06 18:37 -37.48178 144.46959 13066 ft 357 kts 282°
2026-05-06 18:37 -37.47471 144.43945 13726 ft 361 kts 282°
2026-05-06 18:37 -37.46760 144.40901 14337 ft 364 kts 282°
2026-05-06 18:38 -37.46044 144.37834 14932 ft 367 kts 281°
2026-05-06 18:38 -37.45321 144.34742 15520 ft 370 kts 281°
2026-05-06 18:38 -37.44594 144.31627 16113 ft 372 kts 281°
2026-05-06 18:38 -37.43866 144.28489 16701 ft 375 kts 281°
2026-05-06 18:39 -37.43131 144.25331 17291 ft 378 kts 281°
2026-05-06 18:39 -37.42387 144.22147 17872 ft 380 kts 279°
2026-05-06 18:39 -37.41638 144.18953 18494 ft 382 kts 278°
2026-05-06 18:40 -37.40118 144.12496 19507 ft 388 kts 278°
2026-05-06 18:40 -37.39350 144.09229 19990 ft 391 kts 278°
2026-05-06 18:40 -37.38571 144.05932 20474 ft 395 kts 278°
2026-05-06 18:40 -37.37796 144.02654 20949 ft 398 kts 277°
2026-05-06 18:41 -37.37003 143.99304 21396 ft 401 kts 277°
2026-05-06 18:41 -37.36204 143.95929 21834 ft 404 kts 277°
2026-05-06 18:41 -37.35401 143.92529 22264 ft 407 kts 277°
2026-05-06 18:41 -37.34590 143.89107 22675 ft 410 kts 277°
2026-05-06 18:42 -37.33770 143.85657 23084 ft 413 kts 277°
2026-05-06 18:42 -37.32943 143.82183 23501 ft 416 kts 276°
2026-05-06 18:42 -37.32109 143.78685 23864 ft 419 kts 276°
2026-05-06 18:42 -37.31270 143.75168 24166 ft 422 kts 276°
2026-05-06 18:43 -37.30421 143.71632 24492 ft 423 kts 275°
2026-05-06 18:43 -37.29569 143.68089 24847 ft 425 kts 275°
2026-05-06 18:43 -37.28713 143.64525 25184 ft 427 kts 276°
2026-05-06 18:43 -37.27855 143.60944 25522 ft 430 kts 276°
2026-05-06 18:44 -37.26990 143.57336 25852 ft 432 kts 276°
2026-05-06 18:44 -37.26118 143.53715 26178 ft 435 kts 276°
2026-05-06 18:44 -37.25236 143.50078 26507 ft 437 kts 276°
2026-05-06 18:44 -37.24345 143.46415 26739 ft 440 kts 276°
2026-05-06 18:45 -37.23450 143.42733 27144 ft 441 kts 276°
2026-05-06 18:45 -37.22555 143.39055 27630 ft 440 kts 276°
2026-05-06 18:45 -37.21663 143.35380 28099 ft 440 kts 276°
2026-05-06 18:45 -37.20773 143.31708 28554 ft 441 kts 275°
2026-05-06 18:46 -37.19880 143.28023 28933 ft 443 kts 276°
2026-05-06 18:46 -37.18919 143.24341 29296 ft 447 kts 277°
2026-05-06 18:46 -37.17851 143.20662 29716 ft 450 kts 278°
2026-05-06 18:46 -37.16712 143.16996 30181 ft 452 kts 279°
2026-05-06 18:47 -37.15541 143.13339 30620 ft 452 kts 280°
2026-05-06 18:47 -37.14370 143.09699 31096 ft 449 kts 280°
2026-05-06 18:47 -37.13220 143.06081 31618 ft 445 kts 281°
2026-05-06 18:47 -37.12102 143.02491 32183 ft 440 kts 281°
2026-05-06 18:48 -37.11006 142.98929 32660 ft 437 kts 280°
2026-05-06 18:48 -37.09923 142.95385 33154 ft 434 kts 280°
2026-05-06 18:48 -37.08847 142.91865 33684 ft 431 kts 281°
2026-05-06 18:48 -37.07777 142.88367 34130 ft 429 kts 281°
2026-05-06 18:49 -37.06710 142.84886 34246 ft 430 kts 281°
2026-05-06 18:49 -37.04547 142.77834 34261 ft 436 kts 282°
2026-05-06 18:50 -37.02349 142.70718 34265 ft 440 kts 281°
2026-05-06 18:50 -37.00144 142.63609 34272 ft 441 kts 281°
2026-05-06 18:51 -36.97912 142.56453 34269 ft 442 kts 281°
2026-05-06 18:51 -36.95676 142.49291 34253 ft 444 kts 281°
2026-05-06 18:52 -36.93427 142.42089 34260 ft 445 kts 281°
2026-05-06 18:52 -36.91157 142.34875 34267 ft 446 kts 281°
2026-05-06 18:53 -36.88888 142.27665 34217 ft 446 kts 281°
2026-05-06 18:53 -36.86611 142.20411 34279 ft 450 kts 281°
2026-05-06 18:54 -36.84317 142.13151 34295 ft 450 kts 281°
2026-05-06 18:54 -36.82007 142.05884 34301 ft 450 kts 281°
2026-05-06 18:55 -36.79696 141.98617 34262 ft 451 kts 281°
2026-05-06 18:55 -36.77382 141.91342 34271 ft 451 kts 281°
2026-05-06 18:56 -36.75061 141.84065 34281 ft 452 kts 281°
2026-05-06 18:56 -36.72726 141.76774 34294 ft 455 kts 282°
2026-05-06 18:57 -36.70373 141.69432 34309 ft 456 kts 282°
2026-05-06 18:57 -36.68026 141.62142 34312 ft 456 kts 282°
2026-05-06 18:58 -36.65664 141.54812 34315 ft 456 kts 282°
2026-05-06 18:58 -36.63308 141.47479 34317 ft 456 kts 282°
2026-05-06 18:59 -36.60935 141.40157 34316 ft 456 kts 282°
2026-05-06 18:59 -36.58549 141.32832 34273 ft 457 kts 282°
2026-05-06 19:00 -36.56152 141.25469 34291 ft 460 kts 282°
2026-05-06 19:00 -36.53739 141.18089 34308 ft 461 kts 282°
2026-05-06 19:01 -36.51317 141.10710 34277 ft 461 kts 282°
2026-05-06 19:01 -36.48891 141.03307 34312 ft 463 kts 282°
2026-05-06 19:02 -36.46456 140.95893 34319 ft 464 kts 282°
2026-05-06 19:02 -36.44004 140.88478 34322 ft 464 kts 282°
2026-05-06 19:03 -36.41558 140.81057 34307 ft 465 kts 283°
2026-05-06 19:03 -36.38831 140.73785 34315 ft 477 kts 293°
2026-05-06 19:04 -36.34804 140.67098 34323 ft 486 kts 300°
2026-05-06 19:04 -36.30617 140.60498 34319 ft 488 kts 300°
2026-05-06 19:05 -36.26416 140.53880 34324 ft 488 kts 300°
2026-05-06 19:05 -36.22217 140.47272 34332 ft 488 kts 300°
2026-05-06 19:06 -36.18017 140.40659 34310 ft 488 kts 301°
2026-05-06 19:06 -36.13807 140.34057 34329 ft 489 kts 301°
2026-05-06 19:07 -36.09582 140.27459 34333 ft 489 kts 301°
2026-05-06 19:07 -36.05352 140.20864 34346 ft 489 kts 301°
2026-05-06 19:07 -36.03239 140.17568 34124 ft 490 kts 301°
2026-05-06 19:08 -36.01123 140.14266 33854 ft 490 kts 301°
2026-05-06 19:08 -35.99005 140.10965 33571 ft 490 kts 301°
2026-05-06 19:08 -35.96888 140.07675 33301 ft 490 kts 301°
2026-05-06 19:08 -35.94766 140.04382 33032 ft 490 kts 301°
2026-05-06 19:09 -35.92645 140.01087 32770 ft 491 kts 301°
2026-05-06 19:09 -35.90523 139.97788 32501 ft 491 kts 301°
2026-05-06 19:09 -35.88396 139.94488 32210 ft 492 kts 302°
2026-05-06 19:09 -35.86263 139.91190 31953 ft 492 kts 302°
2026-05-06 19:10 -35.84123 139.87888 31693 ft 493 kts 302°
2026-05-06 19:10 -35.81982 139.84591 31439 ft 494 kts 302°
2026-05-06 19:10 -35.79832 139.81284 31191 ft 494 kts 302°
2026-05-06 19:10 -35.77685 139.77976 30951 ft 495 kts 302°
2026-05-06 19:11 -35.75536 139.74661 30689 ft 495 kts 302°
2026-05-06 19:11 -35.73386 139.71348 30423 ft 495 kts 302°
2026-05-06 19:11 -35.71236 139.68036 30144 ft 495 kts 302°
2026-05-06 19:11 -35.69111 139.64770 29864 ft 495 kts 302°
2026-05-06 19:12 -35.66957 139.61465 28909 ft 497 kts 302°
2026-05-06 19:12 -35.64806 139.58171 27584 ft 490 kts 302°
2026-05-06 19:12 -35.62661 139.54894 26345 ft 493 kts 302°
2026-05-06 19:12 -35.60527 139.51640 25044 ft 483 kts 303°
2026-05-06 19:13 -35.58442 139.48474 23847 ft 471 kts 303°
2026-05-06 19:13 -35.56387 139.45351 22812 ft 468 kts 302°
2026-05-06 19:13 -35.54356 139.42260 21909 ft 463 kts 302°
2026-05-06 19:13 -35.52340 139.39189 20980 ft 460 kts 302°
2026-05-06 19:14 -35.50339 139.36133 20062 ft 458 kts 302°
2026-05-06 19:14 -35.48350 139.33097 19154 ft 455 kts 303°
2026-05-06 19:14 -35.46371 139.30084 18196 ft 452 kts 303°
2026-05-06 19:14 -35.44379 139.27126 17363 ft 448 kts 306°
2026-05-06 19:15 -35.42091 139.24526 16495 ft 450 kts 316°
2026-05-06 19:15 -35.39464 139.22450 15613 ft 453 kts 327°
2026-05-06 19:15 -35.36568 139.20953 14902 ft 445 kts 334°
2026-05-06 19:15 -35.33708 139.19649 13763 ft 434 kts 333°
2026-05-06 19:16 -35.30900 139.18358 13043 ft 428 kts 333°
2026-05-06 19:16 -35.28130 139.17072 12303 ft 424 kts 333°
2026-05-06 19:16 -35.25387 139.15791 11669 ft 418 kts 333°
2026-05-06 19:16 -35.22729 139.14559 11519 ft 399 kts 333°
2026-05-06 19:17 -35.20192 139.13390 11400 ft 381 kts 333°
2026-05-06 19:17 -35.17767 139.12272 11264 ft 365 kts 333°
2026-05-06 19:17 -35.15437 139.11196 11144 ft 351 kts 333°
2026-05-06 19:17 -35.13188 139.10158 11023 ft 340 kts 333°
2026-05-06 19:18 -35.11013 139.09157 10900 ft 329 kts 332°
2026-05-06 19:18 -35.08901 139.08183 10715 ft 321 kts 332°
2026-05-06 19:18 -35.06955 139.06991 10590 ft 307 kts 319°
2026-05-06 19:18 -35.05309 139.05445 10477 ft 299 kts 309°
2026-05-06 19:19 -35.03786 139.03716 10328 ft 300 kts 309°
2026-05-06 19:19 -35.02240 139.01965 9831 ft 304 kts 309°
2026-05-06 19:19 -35.00701 139.00236 9456 ft 298 kts 309°
2026-05-06 19:19 -34.99176 138.98534 8793 ft 297 kts 310°
2026-05-06 19:20 -34.97657 138.96839 8213 ft 294 kts 310°
2026-05-06 19:20 -34.96166 138.95141 7716 ft 293 kts 306°
2026-05-06 19:20 -34.94966 138.93213 7281 ft 280 kts 294°
2026-05-06 19:20 -34.93965 138.91212 6971 ft 271 kts 294°
2026-05-06 19:21 -34.92992 138.89285 6868 ft 263 kts 294°
2026-05-06 19:21 -34.92045 138.87407 6673 ft 258 kts 294°
2026-05-06 19:21 -34.91110 138.85543 6260 ft 261 kts 294°
2026-05-06 19:21 -34.90169 138.83662 6019 ft 257 kts 295°
2026-05-06 19:22 -34.89242 138.81818 5506 ft 255 kts 295°
2026-05-06 19:22 -34.88312 138.79971 4959 ft 255 kts 295°
2026-05-06 19:22 -34.87389 138.78137 4289 ft 254 kts 295°
2026-05-06 19:22 -34.86463 138.76300 3741 ft 251 kts 295°
2026-05-06 19:23 -34.85565 138.74532 3547 ft 238 kts 297°
2026-05-06 19:23 -34.84719 138.72879 3418 ft 222 kts 295°
2026-05-06 19:23 -34.84064 138.71266 3309 ft 203 kts 276°
2026-05-06 19:23 -34.84014 138.69640 3190 ft 184 kts 251°
2026-05-06 19:24 -34.84459 138.68295 2993 ft 167 kts 229°
2026-05-06 19:24 -34.85170 138.67234 2786 ft 158 kts 224°
2026-05-06 19:24 -34.85866 138.66225 2576 ft 153 kts 224°
2026-05-06 19:24 -34.86543 138.65245 2371 ft 150 kts 224°
2026-05-06 19:25 -34.87192 138.64302 2170 ft 139 kts 224°
2026-05-06 19:25 -34.87794 138.63428 1998 ft 133 kts 224°
2026-05-06 19:25 -34.88383 138.62576 1805 ft 131 kts 224°
2026-05-06 19:25 -34.88965 138.61731 1622 ft 130 kts 225°
2026-05-06 19:26 -34.89543 138.60894 1445 ft 130 kts 225°
2026-05-06 19:26 -34.90122 138.60053 1263 ft 129 kts 226°
2026-05-06 19:26 -34.90702 138.59211 1081 ft 129 kts 226°
2026-05-06 19:26 -34.91085 138.58656 953 ft 130 kts 225°
2026-05-06 19:27 -34.91670 138.57805 789 ft 133 kts 228°
2026-05-06 19:27 -34.92281 138.56933 626 ft 136 kts 227°
2026-05-06 19:27 -34.92879 138.56041 428 ft 136 kts 229°
2026-05-06 19:27 -34.93491 138.55168 250 ft 135 kts 226°
2026-05-06 19:28 -34.94079 138.54292 70 ft 132 kts 225°
2026-05-06 19:28 -34.94627 138.53506 24 ft 106 kts 228°
2026-05-06 19:28 -34.94991 138.52978 22 ft 57 kts 230°
2026-05-06 19:28 -34.95211 138.52659 21 ft 36 kts 230°
2026-05-06 19:29 -34.95198 138.52514 20 ft 20 kts 321°
2026-05-06 19:29 -34.95069 138.52450 20 ft 22 kts
2026-05-06 19:29 -34.94937 138.52541 20 ft 23 kts 38°
2026-05-06 19:29 -34.94802 138.52666 21 ft 26 kts 37°
2026-05-06 19:30 -34.94658 138.52803 22 ft 25 kts 39°
2026-05-06 19:30 -34.94526 138.52929 25 ft 13 kts 39°
2026-05-06 19:30 -34.94454 138.53009 23 ft 16 kts 58°
2026-05-06 19:30 -34.94470 138.53142 23 ft 18 kts 122°
2026-05-06 19:31 -34.94518 138.53289 23 ft 18 kts 85°
2026-05-06 19:31 -34.94462 138.53409 25 ft 15 kts 50°
2026-05-06 19:31 -34.94322 138.53608 23 ft 13 kts 50°
2026-05-06 19:32 -34.94247 138.53653 24 ft 14 kts 342°
2026-05-06 19:32 -34.94169 138.53590 27 ft 10 kts 320°
2026-05-06 19:32 -34.94132 138.53552 27 ft 3 kts 320°
2026-05-06 19:32 -34.94130 138.53550 27 ft 0 kts 320°